FENGYUN 1C DEB

Satellite information

Favourite Embed

Satellite Type and Status

DEBRISIN ORBIT

Key statistics

Satellite FENGYUN 1C DEB at a glance.

Uptime

9666

Days in orbit

Revolutions

≈ 13.9

Per day

Orbit

SSO

Sun Synchronous Orbit

Inclination

101.7

Latest

Satellite identification and parameters

Extended collection of information and parameters for FENGYUN 1C DEB.

Object identification

Identified? True

Debris? True

Object name: FENGYUN 1C DEB

International designator: 1999-025CTN

Object number (NORAD): 32168

Object ID (CCSDS): 32168

Country: PEOPLES REPUBLIC OF CHINA (PRC)

Current information (Y/N): Y

RCS size: SMALL

Orbital parameters

Period: 103.932 minutes

Inclination: 101.6561 deg

SMA: 7322.517 km

Apoapsis: 1118.88 km

Periapsis: 769.885 km

RAAN: 354.4791 deg

Eccentricy: 0.02383031

Argument of periapsis: 359.6602 deg

Mean anomaly: 0.4349 deg

Mean motion: 13.85517912 rev/day

Mean motion (dot): 0.0000391 rev/day2

B* drag term: 0.0027882676 1/REarth

Two-line elements (TLE)

Creation date: Oct. 25, 2025, 3:11 a.m.

Reference frame: TEME

Reference center: EARTH

Epoch: Oct. 24, 2025, 9:15 a.m. UTC

TLE line 0: 0 FENGYUN 1C DEB

TLE line 1: 1 32168U 99025CTN 25297.38564426 .00003910 00000-0 27883-2 0 9991

TLE line 2: 2 32168 101.6561 354.4791 0238303 359.6602 0.4349 13.85517912627967

Live tracking on map

Real-time ground track for satellite FENGYUN 1C DEB.

In-orbit conjunctions

A list of the most updated potential collisions computed for object FENGYUN 1C DEB.

Target Orbit TCA Probability of collision Miss distance Type
CZ-6A DEB SSO 2025-02-17 09:29:45 0.0001103329 30.0 (m) DEBRIS
FENGYUN 1C DEB SSO 2024-11-11 16:58:05 0.0002418883 589.0 (m) DEBRIS

Associated space launch

Chinese polar orbiting meteorological satellite

FENGYUN 1C DEB was lifted into orbit during the mission ‘Long March 4B | Feng Yun 1C’, on board a Long March 4B space rocket.

The launch took place on May 10, 1999, 1:33 a.m. from Launch Complex 7.

For more information about the launch, click the button.

Launch to space Long March 4B | Feng Yun 1C
Long March 4B | Feng Yun 1C

Agency: N/A

Status: Launch Successful

Launch date: May 10, 1999, 1:33 a.m. UTC

Rocket: Long March 4B

Launch pad: Launch Complex 7

Location: Taiyuan Satellite Launch Center, People's Republic of China

...

Latest news about this satellite

There are no fresh news available about this satellite. Check back as we update our databases every day.


Newsletter sign-up

Weekly statistics, charts and insights to help you stay on top of the space industry.